MERAH PUTIH 2

Last updated on Thu Oct 03 2024 00:02:42 GMT+0000 (Coordinated Universal Time)

1 58995U 24035A 24276.20257534 -.00000358 00000+0 00000+0 0 9994 2 58995 0.0223 263.0317 0001555 291.2631 3.0085 1.00272135 2343
UTC large
Height (km)
Speed (km/s)
/
Latitude / Longitude
Inclination (degrees)
Orbital Period (minutes)
Azimuth
Elevation
Range (km)
Doppler Factor

Next 0 passes for location: London (51.5072 / 0.1276)

Sorry there are no passes over London.